East Taunton, MA

12:33 PM EDT on September 30, 2016 (GMT -0400)
Taunton Municipal

Weather History for KTAN - August, 2014

Change the Weather History Date:

Thursday, August 7, 2014

  Actual Average Record
Temperature  
Mean Temperature 66 °F -  
Max Temperature 81 °F 82 °F 93 °F (2001)
Min Temperature 51 °F 59 °F 40 °F (1972)
Cooling Degree Days 1    
Growing Degree Days 16 (Base 50)    
Moisture  
Dew Point 55 °F    
Average Humidity 82    
Maximum Humidity 97    
Minimum Humidity 40    
Precipitation  
Precipitation 0.00 in - - ()
Sea Level Pressure  
Sea Level Pressure 29.87 in    
Wind  
Wind Speed 1 mph (NNW)    
Max Wind Speed 9 mph    
Max Gust Speed 18 mph    
Visibility 6 miles    
Events Fog , Rain , Thunderstorm    
Averages and records for this station are not official NWS values.
T = Trace of Precipitation, MM = Missing Value Source: NWS Daily Summary

Daily Weather History Graph

Daily Weather History Graph

Search for Another Location

Airport or City:

Trip Planner

Search our weather history database for the weather conditions in past years. The results will help you decide how hot, cold, wet, or windy it might be!

Date:

Astronomy

Aug. 07, 2014 Rise Set
Actual Time 5:43 AM EDT 7:55 PM EDT
Civil Twilight 5:13 AM EDT 8:25 PM EDT
Nautical Twilight 4:35 AM EDT 9:03 PM EDT
Astronomical Twilight 3:53 AM EDT 9:45 PM EDT
Moon 5:09 PM EDT (8/7) 2:10 AM EDT (8/7)
Length of Visible Light 15h 12m
Length of Day
14h 11m
Waxing Gibbous, 86% of the Moon is Illuminated
Aug 7
Waxing Gibbous
Aug 10
Full
Aug 17
Last Quarter
Aug 25
New
Sep 2
First Quarter

Hourly Weather History & Observations

Time (EDT) Temp. Heat Index Dew Point Humidity Pressure Visibility Wind Dir Wind Speed Gust Speed Precip Events Conditions
12:04 AM 60.1 °F - 57.9 °F 93% 29.84 in 1.5 mi Calm Calm - N/A   Partly Cloudy
12:08 AM 57.9 °F - 57.0 °F 97% 29.84 in 3.0 mi Calm Calm - N/A   Partly Cloudy
12:34 AM 57.9 °F - 57.0 °F 97% 29.84 in 1.8 mi Calm Calm - N/A   Clear
12:37 AM 57.0 °F - 55.9 °F 96% 29.84 in 0.8 mi Calm Calm - N/A   Clear
12:52 AM 57.9 °F - 55.9 °F 93% 29.84 in 1.2 mi Calm Calm - N/A   Clear
12:57 AM 57.0 °F - 55.9 °F 96% 29.84 in 3.0 mi Calm Calm - N/A   Clear
1:52 AM 55.0 °F - 54.0 °F 96% 29.84 in 4.0 mi Calm Calm - N/A   Clear
2:13 AM 55.0 °F - 54.0 °F 96% 29.84 in 2.0 mi Calm Calm - N/A   Clear
2:23 AM 55.0 °F - 54.0 °F 96% 29.84 in 4.0 mi Calm Calm - N/A   Clear
2:47 AM 55.4 °F - 53.6 °F 94% 29.84 in 1.5 mi Calm Calm - N/A   Clear
2:52 AM 55.0 °F - 53.1 °F 93% 29.84 in 1.0 mi Calm Calm - N/A   Clear
2:59 AM 55.0 °F - 54.0 °F 96% 29.84 in 2.0 mi Calm Calm - N/A   Clear
3:07 AM 55.0 °F - 53.1 °F 93% 29.84 in 10.0 mi Calm Calm - N/A   Clear
3:52 AM 54.0 °F - 53.1 °F 97% 29.85 in 10.0 mi Calm Calm - N/A   Clear
4:36 AM 53.1 °F - 51.1 °F 93% 29.85 in 2.5 mi Calm Calm - N/A   Clear
4:52 AM 53.1 °F - 51.1 °F 93% 29.86 in 2.5 mi Calm Calm - N/A   Clear
4:55 AM 53.1 °F - 51.1 °F 93% 29.85 in 1.2 mi Calm Calm - N/A   Clear
5:11 AM 52.0 °F - 51.1 °F 97% 29.85 in 2.5 mi Calm Calm - N/A   Clear
5:36 AM 51.1 °F - 50.0 °F 96% 29.86 in 1.2 mi Calm Calm - N/A   Clear
5:45 AM 51.1 °F - 50.0 °F 96% 29.86 in 0.5 mi Calm Calm - N/A Fog Fog
5:52 AM 51.1 °F - 50.0 °F 96% 29.87 in 0.5 mi Calm Calm - N/A Fog Fog
6:15 AM 52.0 °F - 51.1 °F 97% 29.87 in 1.8 mi Calm Calm - N/A   Clear
6:17 AM 52.0 °F - 51.1 °F 97% 29.87 in 3.0 mi Calm Calm - N/A   Clear
6:52 AM 57.0 °F - 55.0 °F 93% 29.88 in 10.0 mi Calm Calm - N/A   Clear
7:52 AM 64.0 °F - 57.9 °F 80% 29.88 in 10.0 mi Calm Calm - N/A   Clear
8:52 AM 69.1 °F - 57.9 °F 68% 29.88 in 10.0 mi WNW 3.5 mph - N/A   Clear
9:52 AM 73.9 °F - 55.0 °F 52% 29.89 in 10.0 mi North 4.6 mph - N/A   Clear
10:52 AM 77.0 °F - 55.9 °F 48% 29.88 in 10.0 mi NW 3.5 mph - N/A   Clear
11:52 AM 79.0 °F - 54.0 °F 42% 29.88 in 10.0 mi Variable 4.6 mph - N/A   Clear
12:52 PM 79.0 °F - 53.1 °F 40% 29.86 in 10.0 mi NW 4.6 mph - N/A   Partly Cloudy
1:31 PM 78.1 °F - 54.0 °F 43% 29.85 in 10.0 mi West 6.9 mph - N/A Thunderstorm Mostly Cloudy
1:52 PM 79.0 °F - 54.0 °F 42% 29.85 in 10.0 mi Variable 3.5 mph - N/A   Mostly Cloudy
2:52 PM 81.0 °F 80.7 °F 55.0 °F 41% 29.84 in 10.0 mi West 5.8 mph - N/A   Clear
3:34 PM 77.0 °F - 55.0 °F 47% 29.84 in 10.0 mi West 5.8 mph - N/A Thunderstorm Mostly Cloudy
3:52 PM 77.0 °F - 57.0 °F 50% 29.85 in 10.0 mi Variable 4.6 mph - 0.00 in Thunderstorm Mostly Cloudy
4:20 PM 73.9 °F - 53.1 °F 48% 29.86 in 10.0 mi North 9.2 mph 18.4 mph N/A Thunderstorm Thunderstorm
4:37 PM 73.0 °F - 55.0 °F 53% 29.87 in 10.0 mi NNE 4.6 mph - N/A   Partly Cloudy
4:52 PM 71.1 °F - 59.0 °F 66% 29.88 in 10.0 mi ESE 6.9 mph - N/A Thunderstorm Scattered Clouds
5:07 PM 71.1 °F - 60.1 °F 68% 29.87 in 10.0 mi East 4.6 mph - N/A   Partly Cloudy
5:52 PM 70.0 °F - 61.0 °F 73% 29.88 in 10.0 mi North 3.5 mph - 0.00 in Rain Light Rain
6:52 PM 71.1 °F - 59.0 °F 66% 29.89 in 10.0 mi Calm Calm - 0.00 in   Clear
8:52 PM 59.0 °F - 57.0 °F 93% 29.92 in 10.0 mi Calm Calm - N/A   Clear
9:52 PM 57.0 °F - 55.9 °F 96% 29.94 in 5.0 mi Calm Calm - N/A   Clear
9:57 PM 57.0 °F - 55.9 °F 96% 29.94 in 1.5 mi Calm Calm - N/A   Clear
10:00 PM 57.0 °F - 55.0 °F 93% 29.94 in 0.8 mi Calm Calm - N/A   Clear
10:14 PM 55.9 °F - 55.0 °F 97% 29.93 in 1.8 mi Calm Calm - N/A   Clear
10:16 PM 55.9 °F - 55.0 °F 97% 29.94 in 3.0 mi Calm Calm - N/A   Clear
10:52 PM 55.0 °F - 54.0 °F 96% 29.94 in 7.0 mi Calm Calm - N/A   Clear
11:03 PM 55.0 °F - 54.0 °F 96% 29.94 in 1.8 mi Calm Calm - N/A   Clear
11:13 PM 54.0 °F - 53.1 °F 97% 29.94 in 3.0 mi West 3.5 mph - N/A   Clear
11:52 PM 54.0 °F - 53.1 °F 97% 29.94 in 7.0 mi Calm Calm - N/A   Clear